Skip Page Navigation
NASA JPL Caltech
NASA Logo - Jet Propulsion Laboratory + View the NASA Portal
+ Near-Earth Object (NEO) Program
Search JPL
JPL Home Earth Solar System Stars & Galaxies Technology
JPL Solar System Dynamics
BODIES ORBITS EPHEMERIDES TOOLS PHYSICAL DATA DISCOVERY FAQ SITE MAP
JPL Small-Body Database Browser
Search: [ help ]  
22185 Stiavnica (2000 YV28)
Classification: Main-belt Asteroid          SPK-ID: 2022185
Ephemeris | Orbit Diagram | Orbital Elements | Physical Parameters | Discovery Circumstances | Close-Approach Data ]

[ show orbit diagram ]
Orbital Elements at Epoch 2456400.5 (2013-Apr-18.0) TDB
Reference: JPL 1 (heliocentric ecliptic J2000)
 Element Value Uncertainty (1-sigma)   Units 
e .006166168524446946 1.0609e-07  
a 3.198323986810795 6.4002e-08 AU
q 3.178602582112338 3.2549e-07 AU
i 22.60608598793539 1.2015e-05 deg
node 100.0916520369919 2.177e-05 deg
peri 308.7682426606721 0.00099357 deg
M 95.73405661071337 0.00098958 deg
tp 2455844.920681253383
(2011-Oct-10.42068125)
0.0057448 JED
period 2089.210066194975
5.72
6.2711e-05
1.717e-07
d
yr
n .1723139313873108 5.1723e-09 deg/d
Q 3.218045391509252 6.4397e-08 AU
  Orbit Determination Parameters
   # obs. used (total)      621  
   data-arc span      10707 days (29.31 yr)  
   first obs. used      1983-12-29  
   last obs. used      2013-04-22  
   planetary ephem.      DE405  
   SB-pert. ephem.      SB405-CPV-2  
   condition code      0  
   fit RMS      .55537  
   data source      ORB  
   producer      Otto Matic  
   solution date      2013-Apr-29 14:31:53  

Additional Information
 Earth MOID = 2.19367 AU 
 T_jup = 3.074 
[ show covariance matrix ]

Ephemeris | Orbit Diagram | Orbital Elements | Physical Parameters | Discovery Circumstances | Close-Approach Data ]

Physical Parameter Table
Parameter Symbol Value Units Sigma Reference Notes
absolute magnitude H 13.1 mag n/a PDS3 (MPO 8988)  

22185 Stiavnica           Discovered 2000 Dec. 29 by P. Kusnirák and U. Babiaková at Ondrejov.
Banská Stiavnica, a town in the "Stiavnické vrchy" mountains, central Slovakia, known for its famous mining history, has been on the UNESCO World Heritage List since 1993. The Mining Academy, founded 1762, was the first of its kind in the world. The town is the birthplace of the second discoverer.
NOTE: some special characters may not display properly (any characters within {} are an attempt to place the proper accent above a character)
Reference: 20010509/MPCPages.arcLast Updated: 2009-05-11

[ show close-approach data ]
Alternate Designations
 2000 YV28 = 1983 YM = 1998 MA34 = 1999 SX12 
Ephemeris | Orbit Diagram | Orbital Elements | Physical Parameters | Discovery Circumstances | Close-Approach Data ]
ABOUT SSD CREDITS/AWARDS PRIVACY/COPYRIGHT GLOSSARY LINKS
FirstGov 2013-May-19 19:29 UT
(server date/time)  
NASA Home Page
Site Manager:   Donald K. Yeomans
Webmaster  Alan B. Chamberlin